Vertical_Velocity
-2 -2 -2 -2 -2 -2 -2 -2 -2 -2 -2 -2 -2 -1 -1 -1 -1 -1 -1 -1 -1 -1 -1 -1 -1 -2 -2 -2 -2 -2 -2 -3 -3 -3 -2 -1 -1 -1 -1 -1 -1 -1 -2 -2 -2 -2 -1 1 1 0 -1 -3 -2 1 4 4 2 -0 -1 -1 -1 -1 -1 -1 -1 -0 0 1 1
-2 -2 -2 -2 -2 -2 -2 -2 -2 -2 -2 -2 -1 -1 -1 -1 -1 -1 -1 -1 -1 -1 -1 -1 -1 -1 -2 -2 -2 -2 -2 -3 -3 -3 -3 -2 -1 -1 -1 -1 -1 -1 -1 -1 -2 -2 -2 -0 1 1 1 -0 -2 -1 1 5 5 3 0 -2 -2 -1 -1 -1 -1 -1 -1 -1 -0
-2 -2 -2 -2 -2 -2 -2 -2 -2 -2 -2 -2 -2 -1 -1 -1 -1 -1 -1 -0 -0 -0 -1 -1 -1 -1 -1 -2 -2 -2 -2 -2 -3 -3 -3 -2 -2 -1 -1 -0 -1 -1 -1 -1 -2 -2 -2 -2 -0 0 1 1 -0 -1 -1 0 3 5 5 2 -0 -1 -2 -1 -1 -1 -0 -0 -0
-2 -2 -2 -2 -2 -2 -2 -2 -2 -2 -2 -2 -2 -1 -1 -1 -1 -0 -0 -0 -0 -0 -0 -0 -0 -1 -1 -1 -2 -2 -2 -2 -3 -3 -3 -3 -2 -1 -1 -1 -0 -0 -1 -1 -1 -1 -2 -2 -2 -1 0 1 1 0 -0 -1 -0 1 3 6 6 4 0 -2 -2 -1 -0 0 1
-2 -2 -2 -2 -2 -2 -2 -2 -2 -2 -2 -2 -2 -2 -1 -1 -1 -0 -0 -0 0 0 -0 -0 -0 -0 -1 -1 -1 -2 -2 -2 -3 -3 -3 -3 -3 -2 -1 -1 -1 -1 -1 -1 -1 -1 -1 -2 -2 -2 -1 -0 0 0 0 0 -0 -1 -1 1 4 6 6 4 1 -1 -2 -1 -0
-3 -2 -2 -2 -2 -2 -2 -2 -2 -2 -2 -2 -2 -2 -2 -1 -1 -1 -0 -0 -0 -0 -0 -0 -0 -1 -1 -1 -1 -1 -2 -2 -3 -3 -3 -3 -3 -3 -2 -1 -1 -1 -1 -1 -1 -1 -1 -1 -2 -2 -2 -1 -1 -0 0 0 0 -0 -1 -1 -1 1 4 7 7 4 1 -1 -1
-2 -2 -2 -2 -2 -2 -2 -2 -2 -2 -2 -2 -2 -2 -2 -2 -1 -1 -1 -0 -0 -0 -0 -0 -0 -1 -1 -1 -1 -1 -1 -2 -2 -3 -3 -3 -3 -3 -2 -2 -1 -1 -1 -1 -1 -1 -1 -0 -1 -1 -2 -2 -2 -1 -1 -0 -0 -0 -0 -0 -1 -1 -1 1 5 7 7 5 2
-3 -2 -2 -2 -2 -2 -2 -2 -2 -2 -2 -2 -2 -3 -2 -2 -2 -1 -1 -1 -1 -0 -0 -0 -0 -0 -1 -1 -1 -1 -1 -2 -2 -3 -3 -3 -3 -3 -2 -2 -2 -2 -1 -1 -1 -1 -1 -1 -0 -0 -1 -1 -1 -1 -1 -1 -0 -0 -0 -0 -0 -1 -1 -1 0 2 5 7 6
-3 -3 -2 -2 -2 -2 -2 -2 -2 -2 -2 -2 -3 -3 -3 -3 -2 -1 -1 -1 -1 -0 -0 -0 -0 -0 -0 -1 -1 -1 -1 -1 -2 -2 -3 -3 -3 -3 -2 -2 -2 -2 -2 -2 -2 -1 -1 -1 -1 -0 -0 -0 -1 -1 -1 -1 -1 -1 -0 -0 -0 -0 -1 -1 -0 -0 1 2 4
-2 -2 -2 -2 -2 -2 -2 -2 -2 -2 -2 -2 -3 -3 -3 -3 -2 -2 -1 -1 -1 -0 -0 -0 -0 -0 -0 -0 -1 -1 -1 -1 -2 -2 -2 -3 -2 -2 -2 -2 -2 -2 -2 -2 -2 -2 -2 -2 -1 -1 -0 0 -0 -0 -1 -1 -1 -1 -1 -1 -1 -1 -1 -1 -1 -1 -1 -1 0
-2 -2 -2 -2 -2 -2 -2 -2 -1 -1 -2 -2 -2 -3 -3 -4 -3 -2 -2 -1 -0 -0 -0 -0 0 0 0 -0 -0 -1 -1 -1 -1 -2 -2 -2 -2 -2 -2 -2 -2 -2 -2 -2 -2 -2 -2 -2 -2 -1 -1 -0 -0 -0 -0 -0 -1 -1 -1 -1 -1 -1 -1 -1 -1 -1 -1 -1 -1
-2 -2 -2 -1 -1 -1 -1 -1 -1 -1 -1 -2 -2 -2 -3 -3 -3 -3 -2 -2 -1 -0 -0 -0 0 0 0 0 -0 -0 -1 -1 -1 -2 -2 -2 -2 -2 -2 -2 -2 -2 -1 -1 -2 -2 -2 -2 -2 -2 -1 -1 -0 -0 0 -0 -0 -0 -1 -1 -1 -1 -2 -2 -1 -1 -1 -1 -1
-2 -2 -2 -2 -1 -1 -1 -1 -1 -1 -1 -2 -2 -2 -2 -3 -3 -3 -2 -2 -1 -1 -0 -0 -0 0 0 0 -0 -0 -1 -1 -1 -2 -2 -1 -1 -1 -1 -1 -1 -1 -1 -1 -1 -2 -2 -2 -2 -2 -1 -1 -1 -0 -0 0 0 0 -0 -0 -1 -1 -1 -2 -2 -2 -1 -1 -1
-2 -2 -2 -2 -2 -2 -1 -1 -1 -1 -1 -1 -2 -2 -2 -2 -2 -2 -2 -2 -2 -1 -1 -0 -0 -0 0 0 0 -0 -0 -1 -1 -1 -2 -1 -1 -1 -1 -1 -1 -1 -1 -1 -1 -2 -2 -2 -2 -2 -2 -1 -1 -1 -0 -0 0 0 0 0 -0 -0 -1 -1 -1 -2 -2 -2 -1
-2 -2 -2 -2 -2 -2 -1 -1 -1 -1 -1 -1 -2 -2 -2 -2 -2 -2 -2 -2 -1 -1 -1 -0 -0 -0 -0 -0 0 0 0 -0 -1 -1 -1 -1 -1 -1 -0 -0 -0 -1 -1 -2 -2 -2 -2 -2 -2 -1 -1 -1 -1 -1 -1 -1 -0 0 0 1 0 0 -0 -0 -1 -1 -2 -2 -2
-2 -2 -2 -2 -2 -2 -2 -1 -1 -1 -1 -1 -2 -2 -2 -2 -2 -2 -1 -1 -1 -1 -0 -0 -0 -0 -0 -0 -0 -0 0 0 -0 -0 -1 -1 -1 -0 -0 0 0 -0 -1 -1 -2 -2 -2 -2 -2 -2 -1 -1 -1 -1 -1 -1 -1 -0 0 0 0 0 0 0 -0 -0 -1 -1 -2
-3 -2 -2 -2 -1 -1 -1 -1 -1 -1 -1 -1 -1 -1 -2 -2 -2 -2 -2 -2 -1 -1 -0 -0 -0 -0 -0 -1 -1 -0 -0 -0 -0 -0 -0 -0 -0 -0 -0 0 0 0 -0 -1 -2 -2 -2 -2 -2 -2 -2 -1 -1 -1 -1 -1 -1 -1 -0 -0 0 0 0 0 0 0 -0 -1 -1
-3 -3 -3 -2 -1 -1 -1 -1 -2 -2 -2 -1 -1 -1 -1 -2 -2 -2 -2 -2 -2 -2 -1 -1 -0 -0 -0 -0 -1 -1 -1 -1 -1 -0 -0 -0 -1 -0 -0 -0 0 0 -0 -0 -1 -2 -2 -2 -3 -3 -2 -2 -1 -1 -1 -1 -1 -1 -0 -0 -0 -0 0 0 0 0 -0 -0 -1
-4 -4 -3 -2 -2 -1 -1 -2 -2 -2 -2 -2 -1 -1 -1 -1 -1 -2 -2 -2 -3 -2 -2 -1 -1 -0 -0 -0 -0 -1 -1 -1 -1 -1 -1 -1 -1 -1 -1 -1 -0 -0 -0 -0 -1 -1 -2 -2 -2 -3 -3 -3 -2 -1 -1 -1 -1 -1 -1 -0 -0 -0 -0 -0 0 0 0 -0 -0
-4 -4 -3 -3 -2 -2 -2 -2 -2 -2 -2 -1 -1 -1 -1 -1 -1 -1 -1 -2 -3 -3 -3 -2 -1 -1 -0 0 0 -0 -0 -1 -1 -1 -1 -1 -1 -1 -1 -1 -1 -1 -1 -1 -1 -1 -2 -2 -2 -3 -3 -3 -2 -2 -1 -1 -1 -1 -1 -1 -0 -0 -0 -0 -0 -0 -0 -0 -0
-4 -3 -3 -3 -3 -3 -3 -3 -2 -2 -1 -1 -1 -1 -1 -1 -1 -1 -1 -2 -2 -2 -3 -3 -2 -1 -0 0 1 1 0 -0 -0 -1 -1 -1 -1 -1 -1 -1 -1 -1 -1 -1 -1 -2 -2 -2 -2 -2 -3 -3 -2 -2 -2 -1 -1 -1 -1 -1 -1 -1 -0 -0 -0 -0 -0 -0 -0
-3 -3 -3 -3 -4 -4 -3 -3 -2 -2 -1 -1 -1 -1 -1 -0 -1 -1 -1 -1 -1 -2 -2 -2 -2 -1 -0 0 1 1 1 1 0 -0 -1 -1 -1 -1 -1 -1 -1 -1 -1 -1 -1 -2 -2 -2 -2 -2 -2 -2 -2 -2 -2 -1 -1 -1 -1 -1 -1 -1 -1 -0 -1 -1 -1 -1 -0
-2 -2 -2 -3 -3 -3 -3 -3 -2 -2 -1 -1 -1 -1 -0 -0 -1 -1 -1 -1 -1 -1 -1 -2 -2 -1 -1 -0 1 1 1 1 1 0 -0 -1 -1 -1 -1 -1 -1 -1 -1 -2 -2 -2 -2 -2 -2 -2 -2 -2 -2 -2 -2 -2 -1 -1 -1 -1 -1 -1 -1 -1 -1 -1 -1 -1 -1
-1 -1 -1 -2 -2 -2 -3 -3 -2 -2 -1 -1 -1 -1 -1 -1 -1 -1 -1 -1 -1 -1 -1 -1 -1 -1 -1 -0 -0 0 0 0 0 -0 -0 -1 -1 -2 -2 -2 -1 -1 -1 -1 -2 -2 -2 -2 -2 -2 -2 -2 -2 -2 -2 -2 -1 -1 -1 -1 -1 -2 -1 -1 -1 -1 -1 -1 -1
-1 -1 -1 -1 -1 -2 -2 -2 -2 -2 -2 -2 -1 -1 -1 -1 -1 -1 -1 -1 -1 -1 -1 -1 -1 -1 -1 -1 -1 -1 -1 -0 -1 -0 -0 -1 -1 -2 -2 -2 -2 -2 -1 -1 -1 -2 -2 -2 -2 -2 -1 -2 -2 -2 -2 -2 -1 -1 -1 -1 -1 -1 -2 -2 -1 -1 -1 -1 -1
-1 -1 -1 -1 -1 -1 -1 -2 -2 -2 -2 -2 -2 -2 -2 -2 -2 -2 -2 -2 -2 -2 -2 -2 -2 -2 -2 -2 -2 -2 -1 -1 -1 -1 -1 -1 -1 -1 -2 -3 -3 -2 -2 -1 -1 -2 -2 -3 -2 -2 -1 -1 -1 -2 -2 -2 -2 -1 -1 -0 -1 -1 -1 -1 -1 -1 -1 -1 -1
-1 -1 -1 -1 -1 -1 -1 -2 -2 -2 -2 -2 -2 -3 -3 -3 -3 -2 -2 -3 -3 -3 -3 -3 -3 -3 -3 -2 -2 -2 -2 -2 -1 -1 -1 -1 -1 -1 -2 -2 -3 -3 -3 -2 -1 -1 -1 -2 -3 -3 -2 -1 -1 -1 -2 -2 -2 -2 -1 -0 -0 -1 -1 -1 -1 -1 -1 -1 -1
-0 -0 -0 -0 -1 -1 -1 -1 -1 -2 -2 -2 -3 -3 -3 -3 -3 -3 -3 -3 -3 -3 -3 -4 -4 -4 -3 -3 -3 -2 -2 -2 -2 -2 -2 -2 -1 -1 -1 -2 -3 -3 -4 -3 -2 -2 -1 -1 -2 -3 -3 -2 -1 -1 -1 -2 -2 -2 -2 -1 -1 -1 -1 -1 -1 -1 -1 -1 -1
-0 0 1 0 -0 -0 -0 -0 -1 -1 -2 -2 -2 -3 -3 -3 -3 -3 -3 -3 -2 -3 -3 -4 -4 -4 -4 -4 -4 -3 -2 -2 -2 -2 -2 -3 -2 -2 -2 -2 -2 -3 -4 -4 -4 -3 -2 -1 -1 -2 -2 -3 -2 -1 -1 -1 -1 -2 -2 -1 -1 -0 -1 -1 -1 -1 -1 -0 -1
-0 0 1 1 1 1 0 -0 -0 -0 -1 -1 -1 -2 -2 -3 -3 -3 -3 -3 -3 -3 -4 -4 -5 -5 -5 -6 -5 -4 -3 -2 -2 -2 -3 -4 -3 -3 -2 -1 -1 -2 -3 -4 -4 -4 -3 -2 -1 -1 -2 -3 -2 -2 -1 -0 -1 -1 -1 -1 -1 -0 -0 -0 -1 -1 -1 -1 -1
-1 -1 -0 -0 0 1 0 0 0 -0 -0 -1 -1 -1 -2 -2 -3 -3 -3 -3 -3 -3 -3 -3 -4 -5 -6 -6 -5 -4 -4 -3 -2 -2 -3 -4 -4 -4 -2 -1 -0 -1 -1 -2 -4 -4 -4 -3 -2 -1 -1 -2 -2 -2 -1 -1 -1 -0 -0 -0 -0 -0 0 0 -1 -1 -1 -1 -1
-2 -2 -2 -1 -1 -1 -1 -1 -1 -1 -1 -2 -2 -2 -2 -2 -2 -2 -2 -2 -2 -2 -2 -2 -3 -4 -4 -4 -5 -5 -4 -3 -3 -2 -3 -3 -4 -4 -3 -1 0 0 -0 -2 -3 -3 -4 -4 -3 -2 -2 -2 -2 -2 -1 -1 -1 -0 -0 0 0 0 0 0 0 -0 -1 -2 -1
-3 -3 -3 -3 -2 -2 -2 -2 -2 -2 -2 -3 -4 -4 -4 -4 -3 -2 -1 -1 -1 -2 -2 -2 -2 -2 -3 -3 -4 -5 -4 -4 -4 -3 -3 -3 -4 -4 -3 -1 1 1 1 -1 -2 -2 -3 -3 -3 -3 -3 -2 -2 -1 -1 -1 -1 -1 -0 0 0 0 0 0 1 0 -0 -1 -1
-3 -3 -3 -3 -3 -3 -2 -2 -2 -3 -3 -3 -4 -4 -5 -6 -6 -5 -4 -4 -3 -2 -2 -1 -1 -2 -2 -2 -3 -4 -5 -4 -4 -4 -4 -4 -4 -4 -3 -1 1 2 1 0 -1 -1 -1 -2 -2 -3 -3 -3 -2 -1 -1 -0 -1 -1 -1 0 0 0 0 1 1 1 0 -0 -1
-3 -3 -3 -3 -3 -3 -3 -2 -2 -2 -3 -3 -3 -4 -4 -5 -6 -6 -6 -6 -5 -4 -3 -2 -2 -1 -1 -1 -2 -3 -4 -5 -4 -4 -4 -4 -4 -4 -4 -2 0 2 2 1 0 -0 -0 -1 -1 -2 -3 -4 -3 -2 -1 -0 -1 -1 -1 -0 0 1 0 0 1 1 1 1 -0
-3 -3 -3 -2 -2 -2 -3 -3 -3 -3 -3 -3 -3 -3 -3 -3 -4 -4 -4 -5 -5 -5 -5 -4 -4 -2 -1 -1 -2 -2 -3 -4 -4 -4 -3 -3 -4 -4 -4 -2 -0 1 2 2 1 0 0 0 -1 -2 -3 -4 -3 -2 -1 -1 -1 -1 -0 -0 1 1 1 -0 0 1 2 2 1
-3 -3 -3 -2 -2 -2 -2 -3 -3 -3 -3 -3 -3 -3 -3 -2 -3 -3 -3 -4 -5 -5 -5 -5 -4 -3 -2 -2 -2 -2 -2 -2 -3 -3 -3 -2 -3 -4 -4 -3 -1 1 2 2 1 1 1 1 0 -1 -2 -3 -3 -2 -2 -2 -1 -1 -0 0 1 1 1 -0 -0 1 2 3 2
-4 -4 -4 -3 -2 -2 -2 -2 -2 -2 -2 -2 -2 -2 -2 -2 -2 -2 -3 -4 -5 -6 -5 -5 -4 -4 -2 -2 -3 -2 -1 -0 -2 -2 -2 -2 -2 -3 -4 -4 -1 1 3 3 2 2 2 1 1 -0 -1 -2 -2 -2 -2 -2 -2 -1 -0 1 1 2 1 1 0 0 2 3 2
-4 -4 -4 -4 -2 -2 -1 -1 -1 -1 -1 -2 -1 -0 -0 -1 -2 -2 -2 -3 -4 -5 -5 -5 -4 -4 -3 -3 -4 -3 -2 -0 -0 -1 -2 -1 -1 -1 -2 -3 -1 1 3 3 2 2 2 1 1 -0 -1 -2 -2 -2 -2 -3 -3 -2 -1 1 2 2 2 1 0 0 1 3 3
-2 -2 -2 -2 -1 -1 -0 1 1 1 1 -0 1 2 2 1 -0 -0 -0 -1 -2 -3 -4 -4 -4 -3 -3 -4 -5 -5 -3 -1 0 0 -0 -1 -0 -1 -1 -2 -1 1 2 3 2 2 2 1 1 -0 -1 -1 -1 -1 -2 -3 -3 -2 -1 1 2 2 2 1 1 1 1 2 3
0 -0 -1 -1 -0 -0 -0 0 2 3 2 1 2 2 3 3 2 2 2 1 -0 -1 -2 -3 -3 -2 -2 -3 -4 -5 -5 -3 -1 1 1 -0 -1 -1 -1 -1 -1 0 2 3 3 2 1 1 0 -0 -1 -1 -1 -1 -2 -2 -2 -2 -1 1 2 2 1 1 1 1 2 3 3
Height
3059 3058 3057 3057 3056 3055 3054 3053 3052 3052 3052 3051 3050 3049 3048 3047 3047 3046 3045 3044 3043 3042 3042 3041 3040 3039 3039 3038 3038 3037 3037 3036 3036 3035 3034 3033 3033 3032 3032 3032 3032 3031 3031 3031 3031 3031 3031 3031 3031 3031 3031 3031 3031 3031 3032 3032 3033 3033 3034 3034 3035 3036 3036 3037 3037 3038 3039 3039 3039
3058 3057 3056 3055 3055 3054 3053 3052 3052 3051 3050 3050 3049 3048 3048 3047 3046 3045 3044 3043 3042 3042 3041 3040 3039 3039 3038 3037 3037 3037 3036 3036 3035 3034 3034 3033 3032 3032 3032 3031 3031 3031 3031 3031 3031 3031 3031 3030 3030 3030 3031 3031 3031 3031 3031 3032 3032 3033 3033 3034 3034 3035 3036 3036 3037 3037 3038 3038 3039
3057 3056 3055 3054 3053 3052 3052 3051 3050 3050 3049 3049 3048 3047 3047 3046 3045 3044 3043 3042 3042 3041 3040 3040 3039 3038 3037 3037 3036 3036 3035 3035 3034 3034 3033 3032 3032 3031 3031 3031 3030 3030 3030 3030 3030 3030 3030 3030 3030 3030 3030 3030 3031 3031 3031 3031 3031 3032 3032 3033 3033 3034 3035 3035 3036 3036 3037 3037 3038
3055 3054 3054 3053 3052 3051 3051 3050 3049 3048 3048 3047 3047 3047 3046 3045 3044 3043 3042 3042 3041 3040 3040 3039 3038 3037 3037 3036 3036 3035 3034 3034 3034 3033 3032 3032 3031 3031 3030 3030 3029 3029 3029 3029 3029 3029 3029 3029 3029 3029 3030 3030 3030 3030 3030 3030 3031 3031 3031 3032 3032 3033 3033 3034 3035 3035 3036 3036 3037
3054 3053 3052 3052 3051 3050 3049 3049 3048 3047 3047 3046 3046 3045 3045 3044 3043 3042 3042 3041 3040 3039 3039 3038 3037 3037 3036 3035 3035 3034 3034 3033 3033 3032 3032 3031 3031 3030 3029 3029 3029 3028 3028 3028 3028 3028 3028 3028 3028 3029 3029 3029 3029 3029 3030 3030 3030 3030 3030 3031 3031 3032 3032 3033 3033 3034 3034 3035 3035
3052 3052 3051 3050 3050 3049 3048 3047 3047 3046 3046 3045 3045 3044 3043 3043 3042 3042 3041 3040 3039 3038 3038 3037 3037 3036 3035 3035 3034 3033 3033 3032 3032 3032 3031 3031 3030 3029 3029 3028 3028 3027 3027 3027 3027 3027 3027 3027 3027 3027 3028 3028 3028 3028 3029 3029 3029 3029 3030 3030 3030 3030 3031 3032 3032 3032 3033 3033 3034
3051 3050 3050 3049 3048 3047 3047 3046 3046 3045 3044 3044 3043 3043 3042 3042 3041 3040 3040 3039 3038 3037 3037 3036 3036 3035 3034 3034 3033 3033 3032 3032 3031 3031 3030 3030 3029 3029 3028 3027 3027 3027 3027 3027 3027 3027 3027 3026 3027 3027 3027 3027 3027 3027 3027 3028 3028 3028 3028 3029 3029 3029 3030 3030 3031 3031 3032 3032 3032
3050 3049 3048 3047 3047 3046 3046 3045 3044 3044 3043 3042 3042 3042 3041 3040 3040 3039 3039 3038 3037 3037 3036 3035 3035 3034 3033 3033 3032 3032 3031 3031 3030 3030 3029 3029 3028 3028 3027 3027 3026 3026 3026 3026 3026 3026 3026 3025 3025 3025 3025 3025 3026 3026 3026 3026 3027 3027 3027 3027 3028 3028 3029 3029 3029 3029 3030 3031 3031
3048 3047 3047 3046 3045 3045 3044 3044 3043 3042 3042 3041 3041 3040 3040 3039 3039 3038 3037 3037 3036 3036 3035 3034 3034 3033 3032 3032 3032 3031 3030 3030 3029 3029 3028 3028 3027 3027 3027 3026 3026 3025 3025 3024 3024 3024 3024 3024 3024 3024 3024 3024 3024 3024 3024 3025 3025 3025 3026 3026 3026 3027 3027 3027 3028 3028 3028 3029 3029
3046 3046 3045 3044 3044 3043 3043 3042 3042 3041 3041 3040 3039 3039 3038 3038 3037 3037 3036 3036 3035 3035 3034 3033 3033 3032 3032 3031 3031 3030 3029 3029 3028 3028 3027 3027 3027 3026 3026 3025 3025 3024 3024 3024 3023 3023 3023 3023 3023 3023 3023 3023 3023 3023 3023 3023 3023 3024 3024 3024 3025 3025 3025 3026 3026 3027 3027 3027 3028
3045 3044 3043 3043 3042 3042 3041 3041 3040 3040 3039 3039 3038 3038 3037 3037 3036 3036 3035 3035 3034 3033 3033 3032 3032 3031 3031 3030 3030 3029 3029 3028 3027 3027 3027 3026 3025 3025 3024 3024 3024 3023 3023 3023 3022 3022 3022 3022 3022 3022 3022 3022 3022 3022 3022 3022 3022 3022 3022 3022 3023 3023 3024 3024 3025 3025 3025 3026 3026
3043 3042 3042 3041 3041 3040 3040 3039 3039 3038 3038 3037 3037 3036 3036 3035 3035 3034 3034 3033 3033 3032 3032 3031 3031 3030 3030 3029 3029 3028 3028 3027 3027 3026 3026 3025 3024 3024 3023 3023 3023 3022 3022 3022 3022 3021 3021 3021 3021 3021 3020 3020 3020 3020 3020 3020 3021 3021 3021 3021 3021 3022 3022 3022 3023 3023 3024 3024 3024
3041 3041 3040 3040 3039 3039 3038 3038 3037 3037 3037 3036 3036 3035 3035 3034 3033 3033 3032 3032 3032 3031 3031 3030 3029 3029 3029 3028 3028 3027 3027 3026 3026 3025 3025 3024 3023 3023 3022 3022 3022 3021 3021 3021 3020 3020 3020 3020 3019 3019 3019 3019 3019 3019 3019 3019 3019 3019 3019 3019 3019 3020 3020 3020 3021 3021 3022 3022 3022
3039 3039 3038 3038 3037 3037 3037 3036 3036 3035 3035 3034 3034 3034 3033 3033 3032 3032 3031 3031 3030 3030 3029 3029 3028 3028 3027 3027 3027 3026 3026 3025 3025 3024 3023 3023 3022 3022 3022 3021 3021 3020 3020 3020 3019 3019 3019 3018 3018 3018 3017 3017 3017 3017 3017 3017 3017 3017 3017 3017 3018 3018 3018 3018 3018 3019 3019 3020 3021
3037 3037 3037 3036 3036 3035 3035 3034 3034 3033 3033 3032 3032 3032 3032 3031 3031 3030 3030 3029 3029 3028 3028 3027 3027 3027 3026 3026 3025 3025 3025 3024 3023 3023 3022 3022 3022 3021 3021 3020 3020 3019 3019 3019 3018 3018 3017 3017 3017 3017 3016 3016 3016 3016 3016 3016 3016 3016 3016 3016 3016 3016 3016 3016 3017 3017 3017 3018 3018
3036 3035 3035 3034 3034 3033 3033 3032 3032 3032 3031 3031 3031 3030 3030 3029 3029 3029 3028 3028 3027 3027 3026 3026 3026 3025 3025 3024 3024 3024 3023 3023 3022 3022 3021 3021 3020 3020 3019 3019 3019 3018 3018 3017 3017 3017 3017 3016 3016 3015 3015 3015 3014 3014 3014 3014 3014 3014 3014 3014 3014 3014 3014 3014 3014 3015 3015 3015 3016
3033 3033 3033 3032 3032 3031 3031 3030 3030 3030 3029 3029 3028 3028 3028 3027 3027 3027 3027 3026 3026 3025 3025 3024 3024 3024 3023 3023 3022 3022 3022 3021 3021 3020 3020 3019 3019 3018 3018 3018 3017 3017 3017 3016 3016 3016 3015 3015 3015 3014 3014 3013 3013 3013 3012 3012 3012 3013 3013 3013 3013 3013 3012 3012 3012 3013 3013 3013 3013
3031 3031 3031 3030 3030 3029 3029 3028 3028 3027 3027 3027 3027 3026 3026 3026 3025 3025 3025 3024 3024 3023 3023 3022 3022 3022 3022 3021 3021 3020 3020 3020 3019 3019 3018 3018 3017 3017 3017 3017 3016 3016 3016 3015 3015 3014 3014 3013 3013 3013 3012 3012 3012 3011 3011 3011 3011 3011 3011 3011 3011 3011 3011 3011 3011 3011 3011 3011 3011
3029 3029 3028 3028 3027 3027 3027 3026 3026 3025 3025 3025 3024 3024 3024 3023 3023 3023 3022 3022 3022 3022 3021 3021 3020 3020 3020 3019 3019 3019 3018 3018 3017 3017 3017 3016 3016 3016 3015 3015 3015 3014 3014 3014 3013 3013 3012 3012 3012 3012 3011 3011 3010 3010 3010 3009 3009 3009 3009 3009 3009 3009 3009 3009 3009 3009 3009 3009 3009
3027 3027 3026 3026 3025 3025 3024 3024 3023 3023 3023 3022 3022 3022 3022 3021 3021 3021 3021 3020 3020 3020 3019 3019 3018 3018 3017 3017 3017 3017 3017 3016 3016 3015 3015 3015 3014 3014 3013 3013 3013 3013 3012 3012 3012 3011 3011 3011 3010 3010 3010 3009 3009 3008 3008 3007 3007 3007 3007 3007 3007 3007 3007 3007 3007 3007 3007 3007 3007
3024 3024 3024 3023 3023 3022 3022 3022 3021 3021 3021 3020 3020 3020 3019 3019 3019 3019 3018 3018 3018 3017 3017 3017 3017 3016 3016 3015 3015 3015 3014 3014 3014 3013 3013 3013 3012 3012 3012 3012 3011 3011 3011 3010 3010 3010 3009 3009 3009 3008 3008 3007 3007 3007 3006 3006 3006 3005 3005 3005 3005 3005 3005 3005 3005 3005 3005 3005 3005
3022 3021 3021 3021 3020 3020 3019 3019 3019 3018 3018 3018 3017 3017 3017 3017 3017 3016 3016 3016 3016 3015 3015 3015 3014 3014 3013 3013 3013 3012 3012 3012 3012 3011 3011 3011 3010 3010 3010 3010 3009 3009 3009 3008 3008 3008 3007 3007 3007 3007 3006 3006 3006 3005 3005 3004 3004 3003 3003 3003 3003 3003 3003 3003 3003 3003 3003 3003 3003
3019 3018 3018 3018 3017 3017 3017 3016 3016 3016 3015 3015 3015 3015 3014 3014 3014 3014 3014 3013 3013 3013 3013 3012 3012 3012 3011 3011 3010 3010 3010 3009 3009 3009 3008 3008 3008 3008 3008 3007 3007 3007 3007 3007 3006 3006 3005 3005 3005 3004 3004 3004 3004 3003 3003 3002 3002 3002 3001 3001 3001 3001 3001 3001 3001 3001 3001 3001 3001
3016 3015 3015 3015 3014 3014 3014 3013 3013 3013 3012 3012 3012 3012 3012 3011 3011 3011 3011 3011 3010 3010 3010 3010 3010 3009 3009 3008 3008 3007 3007 3007 3006 3006 3006 3006 3006 3005 3005 3005 3005 3005 3005 3004 3004 3004 3003 3003 3002 3002 3002 3002 3002 3001 3001 3001 3000 3000 3000 2999 2999 2999 2998 2999 2999 2999 2999 2999 2999
3012 3012 3012 3012 3011 3011 3011 3010 3010 3010 3009 3009 3009 3009 3008 3008 3008 3008 3007 3007 3007 3007 3007 3007 3007 3007 3006 3006 3005 3005 3004 3004 3004 3003 3003 3003 3003 3003 3003 3002 3002 3002 3002 3002 3002 3001 3001 3001 3000 3000 3000 3000 2999 2999 2999 2999 2998 2998 2998 2997 2997 2997 2996 2996 2997 2997 2997 2997 2997
3009 3009 3008 3008 3008 3008 3007 3007 3007 3007 3006 3006 3006 3005 3005 3005 3005 3004 3004 3004 3004 3004 3004 3003 3003 3003 3003 3003 3002 3002 3002 3001 3001 3001 3001 3001 3001 3000 3000 3000 3000 3000 3000 3000 2999 2999 2998 2998 2998 2997 2997 2997 2997 2997 2997 2997 2997 2996 2996 2995 2995 2995 2994 2994 2994 2994 2994 2994 2994
3006 3005 3005 3005 3005 3004 3004 3004 3003 3003 3003 3003 3002 3002 3002 3002 3001 3001 3001 3000 3000 3000 3000 3000 3000 3000 3000 3000 2999 2999 2999 2999 2998 2998 2998 2998 2998 2997 2997 2997 2997 2997 2997 2997 2997 2996 2996 2996 2995 2995 2995 2995 2994 2994 2994 2994 2994 2994 2994 2993 2993 2992 2992 2992 2992 2992 2992 2992 2992
3002 3002 3002 3002 3001 3001 3001 3000 3000 3000 2999 2999 2999 2999 2998 2998 2998 2997 2997 2997 2997 2996 2996 2996 2996 2996 2996 2996 2996 2996 2996 2996 2996 2995 2995 2995 2995 2995 2995 2995 2994 2994 2994 2994 2994 2994 2993 2993 2992 2992 2992 2992 2992 2992 2992 2992 2992 2992 2992 2991 2991 2990 2990 2990 2990 2990 2990 2990 2990
2999 2999 2998 2998 2998 2997 2997 2997 2997 2996 2996 2996 2996 2995 2995 2995 2995 2994 2994 2993 2993 2993 2992 2992 2992 2992 2992 2992 2992 2992 2992 2992 2992 2992 2992 2992 2992 2992 2992 2992 2992 2992 2991 2991 2991 2991 2990 2990 2990 2989 2989 2989 2989 2989 2989 2989 2989 2989 2989 2989 2989 2988 2988 2987 2987 2987 2987 2987 2987
2996 2996 2995 2995 2995 2994 2994 2994 2993 2993 2993 2992 2992 2992 2992 2992 2991 2991 2991 2990 2990 2989 2989 2988 2988 2988 2988 2988 2988 2988 2988 2988 2989 2989 2989 2989 2989 2989 2988 2988 2988 2988 2988 2988 2988 2987 2987 2987 2987 2987 2986 2986 2986 2986 2986 2987 2987 2987 2987 2987 2986 2986 2986 2985 2985 2985 2985 2985 2985
2992 2992 2992 2992 2991 2991 2991 2990 2990 2990 2990 2989 2989 2989 2988 2988 2988 2987 2987 2987 2986 2986 2986 2985 2985 2984 2984 2985 2985 2985 2985 2985 2985 2985 2985 2985 2985 2986 2986 2986 2985 2985 2985 2985 2985 2984 2984 2984 2984 2983 2983 2983 2983 2983 2983 2983 2984 2984 2984 2984 2984 2984 2983 2983 2983 2982 2982 2982 2982
2989 2989 2988 2988 2988 2987 2987 2987 2986 2986 2986 2986 2986 2986 2985 2985 2985 2984 2984 2983 2983 2982 2982 2982 2981 2981 2981 2981 2981 2981 2981 2981 2981 2981 2981 2982 2982 2982 2982 2982 2982 2982 2982 2982 2982 2981 2981 2981 2981 2980 2980 2980 2980 2980 2980 2980 2981 2981 2981 2981 2981 2981 2981 2981 2980 2980 2980 2980 2980
2986 2986 2985 2985 2984 2984 2983 2983 2983 2982 2982 2982 2982 2982 2982 2982 2981 2981 2981 2980 2980 2979 2979 2978 2978 2978 2977 2977 2977 2977 2977 2977 2977 2977 2977 2977 2978 2978 2979 2979 2979 2979 2979 2979 2978 2978 2978 2977 2977 2977 2977 2977 2977 2977 2977 2977 2977 2978 2978 2978 2978 2978 2978 2978 2978 2978 2977 2977 2977
2983 2983 2982 2982 2982 2981 2981 2980 2980 2979 2979 2979 2979 2978 2978 2978 2978 2977 2977 2977 2977 2976 2976 2975 2975 2975 2974 2974 2974 2974 2974 2974 2974 2974 2974 2974 2974 2975 2975 2976 2976 2976 2976 2975 2975 2975 2974 2974 2974 2974 2973 2973 2973 2974 2974 2974 2974 2975 2975 2975 2975 2976 2976 2976 2976 2975 2975 2975 2975
2981 2980 2980 2979 2979 2979 2978 2977 2977 2977 2977 2976 2976 2975 2975 2975 2974 2974 2974 2973 2973 2973 2972 2972 2972 2972 2971 2971 2971 2970 2970 2970 2970 2970 2970 2970 2970 2971 2971 2972 2972 2973 2972 2972 2972 2971 2971 2971 2971 2970 2970 2970 2970 2971 2971 2971 2971 2972 2972 2972 2972 2972 2972 2973 2973 2973 2973 2972 2972
2978 2977 2977 2977 2976 2976 2975 2975 2975 2974 2974 2973 2973 2973 2972 2972 2971 2971 2970 2970 2970 2969 2969 2969 2968 2968 2968 2967 2967 2967 2967 2967 2967 2967 2967 2967 2967 2967 2967 2968 2969 2969 2969 2968 2968 2968 2968 2967 2967 2967 2967 2967 2967 2967 2967 2967 2968 2968 2968 2969 2969 2969 2970 2970 2970 2970 2970 2970 2970
2974 2974 2974 2973 2973 2973 2972 2972 2972 2971 2971 2971 2970 2970 2969 2969 2968 2968 2967 2967 2967 2966 2966 2966 2965 2965 2964 2964 2964 2963 2963 2963 2963 2963 2963 2963 2963 2963 2963 2964 2965 2965 2965 2965 2964 2964 2964 2964 2964 2964 2963 2963 2963 2964 2964 2964 2965 2965 2965 2966 2966 2966 2967 2967 2967 2967 2967 2967 2967
2971 2971 2970 2970 2969 2969 2969 2968 2968 2968 2967 2967 2967 2967 2966 2966 2965 2965 2964 2964 2963 2963 2963 2962 2962 2962 2961 2961 2961 2960 2960 2960 2960 2960 2960 2960 2960 2960 2960 2960 2960 2961 2961 2961 2961 2961 2961 2961 2961 2960 2960 2960 2960 2960 2961 2961 2961 2962 2962 2962 2963 2963 2963 2964 2964 2964 2964 2965 2965
2967 2967 2966 2966 2965 2965 2965 2964 2964 2964 2963 2963 2963 2962 2962 2962 2962 2961 2961 2961 2960 2960 2959 2959 2959 2959 2958 2958 2957 2957 2957 2957 2957 2957 2956 2956 2956 2956 2956 2956 2957 2957 2957 2957 2957 2957 2957 2957 2957 2957 2957 2957 2957 2957 2957 2957 2958 2958 2959 2959 2960 2960 2960 2961 2961 2961 2962 2962 2962
2962 2962 2962 2961 2961 2960 2960 2960 2959 2959 2959 2958 2958 2958 2957 2957 2957 2957 2957 2957 2956 2956 2956 2956 2956 2955 2955 2955 2954 2954 2954 2954 2954 2953 2953 2953 2953 2953 2953 2953 2953 2953 2954 2954 2954 2954 2954 2954 2954 2953 2953 2953 2953 2953 2953 2954 2954 2955 2955 2956 2957 2957 2957 2957 2958 2958 2958 2959 2959
2958 2957 2957 2957 2956 2956 2956 2955 2955 2954 2954 2954 2953 2953 2952 2952 2952 2952 2952 2952 2952 2952 2952 2952 2952 2952 2951 2951 2951 2951 2950 2950 2950 2950 2950 2950 2949 2949 2949 2949 2949 2950 2950 2950 2950 2950 2950 2950 2950 2950 2950 2950 2950 2950 2950 2950 2951 2952 2952 2952 2953 2953 2954 2954 2955 2955 2956 2956 2956